Change the Weather History Date:

Saturday, June 29, 2013

  Actual Average Record
Temperature  
Mean Temperature 73 °F 70 °F  
Max Temperature 81 °F 81 °F 96 °F (1959)
Min Temperature 64 °F 60 °F 47 °F (1970)
Degree Days  
Heating Degree Days 0 0  
Month to date heating degree days 21 55  
Since 1 June heating degree days 21 55  
Since 1 July heating degree days 5830 6256  
Cooling Degree Days 8 6  
Month to date cooling degree days 127 111  
Year to date cooling degree days 191 148  
Since 1 June cooling degree days 127 111  
Growing Degree Days 22 (Base 50)    
Moisture  
Dew Point 61 °F    
Average Humidity 69    
Maximum Humidity 93    
Minimum Humidity 45    
Precipitation  
Precipitation 0.02 in 0.13 in 2.53 in (1980)
Month to date precipitation 5.13 3.90  
Year to date precipitation 14.90 17.70  
Sea Level Pressure  
Sea Level Pressure 29.59 in    
Wind  
Wind Speed 5 mph (SW)    
Max Wind Speed 16 mph    
Max Gust Speed 22 mph    
Visibility 8 miles    
Events Rain    
T = Trace of Precipitation, MM = Missing Value Source: NWS Daily Summary

Daily Weather History Graph

Daily Weather History Graph

Search for Another Location

Airport or City:

Trip Planner

Search our weather history database for the weather conditions in past years. The results will help you decide how hot, cold, wet, or windy it might be!

Date:

Astronomy

Jun. 29, 2013 Rise Set
Actual Time 5:32 AM EDT 8:40 PM EDT
Civil Twilight 4:58 AM EDT 9:13 PM EDT
Nautical Twilight 4:15 AM EDT 9:57 PM EDT
Astronomical Twilight 3:24 AM EDT 10:48 PM EDT
Moon 12:03 AM EDT (6/29) 12:46 PM EDT (6/29)
Length of Visible Light 16h 15m
Length of Day
15h 07m
Waning Gibbous, 56% of the Moon is Illuminated
Jun 29
Waning Gibbous
Jun 30
Last Quarter
Jul 8
New
Jul 15
First Quarter
Jul 22
Full

Hourly Weather History & Observations

Time (EDT) Temp. Heat Index Dew Point Humidity Pressure Visibility Wind Dir Wind Speed Gust Speed Precip Events Conditions
12:39 AM 64.4 °F - 62.6 °F 94% 29.54 in 8.0 mi Calm Calm - N/A   Mostly Cloudy
12:54 AM 64.0 °F - 62.1 °F 93% 29.52 in 8.0 mi Calm Calm - N/A   Overcast
1:54 AM 64.0 °F - 62.1 °F 93% 29.52 in 7.0 mi Calm Calm - N/A   Overcast
2:35 AM 64.4 °F - 62.6 °F 94% 29.53 in 6.0 mi Calm Calm - N/A   Overcast
2:54 AM 64.9 °F - 62.1 °F 90% 29.50 in 7.0 mi Calm Calm - N/A   Overcast
3:54 AM 64.0 °F - 62.1 °F 93% 29.50 in 5.0 mi Calm Calm - N/A   Mostly Cloudy
4:35 AM 64.4 °F - 62.6 °F 94% 29.54 in 5.0 mi Calm Calm - N/A   Mostly Cloudy
4:47 AM 64.4 °F - 62.6 °F 94% 29.55 in 5.0 mi Calm Calm - N/A   Mostly Cloudy
4:54 AM 64.0 °F - 62.1 °F 93% 29.53 in 5.0 mi Calm Calm - N/A   Mostly Cloudy
5:12 AM 64.4 °F - 62.6 °F 94% 29.57 in 5.0 mi Calm Calm - N/A   Overcast
5:49 AM 64.4 °F - 62.6 °F 94% 29.56 in 6.0 mi Calm Calm - N/A   Overcast
6:45 AM 64.4 °F - 62.6 °F 94% 29.58 in 4.0 mi SW 3.5 mph - N/A   Scattered Clouds
6:54 AM 64.9 °F - 62.1 °F 90% 29.57 in 5.0 mi SW 3.5 mph - N/A   Scattered Clouds
7:01 AM 64.4 °F - 62.6 °F 94% 29.59 in 5.0 mi SW 4.6 mph - N/A   Mostly Cloudy
7:11 AM 64.4 °F - 62.6 °F 94% 29.59 in 5.0 mi SW 4.6 mph - N/A   Mostly Cloudy
7:24 AM 64.4 °F - 60.8 °F 88% 29.60 in 6.0 mi SW 4.6 mph - N/A   Mostly Cloudy
7:54 AM 64.9 °F - 62.1 °F 90% 29.58 in 5.0 mi WSW 4.6 mph - 0.00 in   Overcast
8:54 AM 66.0 °F - 61.0 °F 84% 29.59 in 6.0 mi SW 6.9 mph - N/A   Haze
9:15 AM 66.2 °F - 60.8 °F 83% 29.61 in 7.0 mi SW 10.4 mph - N/A   Overcast
9:44 AM 66.2 °F - 60.8 °F 83% 29.62 in 8.0 mi SW 6.9 mph - N/A   Overcast
9:54 AM 68.0 °F - 60.1 °F 76% 29.60 in 8.0 mi WSW 10.4 mph - N/A   Overcast
10:54 AM 70.0 °F - 60.1 °F 71% 29.60 in 9.0 mi West 5.8 mph - N/A   Mostly Cloudy
11:40 AM 73.4 °F - 60.8 °F 65% 29.62 in 10.0 mi WSW 8.1 mph - N/A   Mostly Cloudy
11:54 AM 73.0 °F - 60.1 °F 64% 29.60 in 10.0 mi Variable 4.6 mph - N/A   Mostly Cloudy
12:54 PM 75.9 °F - 61.0 °F 60% 29.59 in 10.0 mi SW 8.1 mph - N/A   Partly Cloudy
1:54 PM 79.0 °F - 60.1 °F 52% 29.58 in 10.0 mi SSW 10.4 mph 19.6 mph N/A   Partly Cloudy
2:54 PM 78.1 °F - 57.9 °F 50% 29.59 in 10.0 mi SW 10.4 mph 17.3 mph N/A   Mostly Cloudy
3:54 PM 80.1 °F 80.6 °F 57.9 °F 47% 29.60 in 10.0 mi SW 12.7 mph - N/A   Partly Cloudy
4:54 PM 79.0 °F - 59.0 °F 50% 29.61 in 10.0 mi SW 10.4 mph 17.3 mph N/A   Partly Cloudy
5:54 PM 78.1 °F - 57.9 °F 50% 29.60 in 10.0 mi SSW 10.4 mph 16.1 mph N/A   Partly Cloudy
6:54 PM 79.0 °F - 57.0 °F 47% 29.61 in 10.0 mi SSW 8.1 mph - N/A   Clear
7:54 PM 78.1 °F - 57.0 °F 48% 29.64 in 10.0 mi SW 5.8 mph - N/A   Clear
8:54 PM 73.9 °F - 60.1 °F 62% 29.66 in 10.0 mi South 3.5 mph - N/A   Mostly Cloudy
9:54 PM 69.1 °F - 64.0 °F 84% 29.70 in 10.0 mi Calm Calm - 0.02 in Rain Light Rain
10:54 PM 66.9 °F - 64.0 °F 90% 29.70 in 10.0 mi Calm Calm - 0.00 in   Clear
11:54 PM 66.0 °F - 63.0 °F 90% 29.71 in 9.0 mi ESE 3.5 mph - N/A   Partly Cloudy